Deming, NM

11:32 AM MST on February 11, 2016 (GMT -0700)
Deming Municipal

Weather History for KDMN - December, 2012

Change the Weather History Date:

Monday, December 3, 2012

  Actual Average Record
Temperature  
Mean Temperature 54 °F 44 °F  
Max Temperature 71 °F 59 °F 77 °F (1954)
Min Temperature 36 °F 29 °F 16 °F (1991)
Degree Days  
Heating Degree Days 12    
Growing Degree Days 4 (Base 50)    
Moisture  
Dew Point 25 °F    
Average Humidity 35    
Maximum Humidity 50    
Minimum Humidity 20    
Precipitation  
Precipitation 0.00 in 0.03 in 0.48 in (1964)
Month to date precipitation 0.00 0.09  
Year to date precipitation 3.80 10.75  
Sea Level Pressure  
Sea Level Pressure 30.02 in    
Wind  
Wind Speed 10 mph (West)    
Max Wind Speed 22 mph    
Max Gust Speed 31 mph    
Visibility 10 miles    
Events      
T = Trace of Precipitation, MM = Missing Value Source: NWS Daily Summary

Daily Weather History Graph

Daily Weather History Graph

Search for Another Location

Airport or City:

Trip Planner

Search our weather history database for the weather conditions in past years. The results will help you decide how hot, cold, wet, or windy it might be!

Date:

Astronomy

Dec. 03, 2012 Rise Set
Actual Time 6:56 AM MST 5:05 PM MST
Civil Twilight 6:29 AM MST 5:32 PM MST
Nautical Twilight 5:59 AM MST 6:02 PM MST
Astronomical Twilight 5:29 AM MST 6:32 PM MST
Moon 9:45 PM MST (12/3) 10:29 AM MST (12/3)
Length of Visible Light 11h 03m
Length of Day
10h 09m
Waning Gibbous, 77% of the Moon is Illuminated
Dec 3
Waning Gibbous
Dec 6
Last Quarter
Dec 13
New
Dec 19
First Quarter
Dec 28
Full

Hourly Weather History & Observations

Time (MST) Temp. Windchill Dew Point Humidity Pressure Visibility Wind Dir Wind Speed Gust Speed Precip Events Conditions
12:53 AM 39.0 °F 33.4 °F 16.0 °F 39% 29.98 in 10.0 mi West 8.1 mph - N/A   Clear
1:53 AM 42.1 °F 37.7 °F 16.0 °F 35% 29.97 in 10.0 mi WSW 6.9 mph - N/A   Clear
2:53 AM 41.0 °F 35.8 °F 16.0 °F 36% 29.97 in 10.0 mi WSW 8.1 mph - N/A   Clear
3:53 AM 42.1 °F 37.1 °F 16.0 °F 35% 29.97 in 10.0 mi SSW 8.1 mph - N/A   Clear
5:53 AM 37.9 °F 34.4 °F 16.0 °F 41% 30.01 in 10.0 mi WSW 4.6 mph - N/A   Clear
6:53 AM 41.0 °F 35.8 °F 18.0 °F 40% 30.06 in 10.0 mi WNW 8.1 mph - N/A   Clear
7:53 AM 44.1 °F 41.5 °F 19.0 °F 37% 30.09 in 10.0 mi SW 4.6 mph - N/A   Clear
8:53 AM 50.0 °F - 21.0 °F 32% 30.08 in 10.0 mi SW 6.9 mph - N/A   Clear
9:53 AM 55.0 °F - 23.0 °F 29% 30.10 in 10.0 mi SSW 4.6 mph - N/A   Clear
10:53 AM 64.0 °F - 27.0 °F 25% 30.05 in 10.0 mi West 13.8 mph - N/A   Clear
11:53 AM 68.0 °F - 26.1 °F 21% 30.02 in 10.0 mi West 15.0 mph - N/A   Clear
12:53 PM 70.0 °F - 26.1 °F 19% 29.99 in 10.0 mi WNW 17.3 mph 31.1 mph N/A   Clear
1:53 PM 70.0 °F - 28.0 °F 21% 29.96 in 10.0 mi West 17.3 mph 25.3 mph N/A   Clear
2:53 PM 70.0 °F - 28.0 °F 21% 29.96 in 10.0 mi West 17.3 mph 24.2 mph N/A   Clear
3:53 PM 68.0 °F - 30.9 °F 25% 29.98 in 10.0 mi West 16.1 mph 23.0 mph N/A   Clear
4:53 PM 64.9 °F - 30.9 °F 28% 29.99 in 10.0 mi West 11.5 mph - N/A   Clear
5:53 PM 62.1 °F - 30.0 °F 30% 30.03 in 10.0 mi West 15.0 mph - N/A   Clear
6:53 PM 60.1 °F - 30.9 °F 33% 30.04 in 10.0 mi West 15.0 mph - N/A   Clear
7:53 PM 57.0 °F - 33.1 °F 40% 30.07 in 10.0 mi West 8.1 mph - N/A   Clear
8:53 PM 54.0 °F - 34.0 °F 47% 30.09 in 10.0 mi Variable 4.6 mph - N/A   Clear
9:53 PM 54.0 °F - 34.0 °F 47% 30.06 in 10.0 mi WNW 13.8 mph - N/A   Clear
11:53 PM 50.0 °F - 34.0 °F 54% 30.07 in 10.0 mi NW 8.1 mph - N/A   Clear